Traverse City, MI

8:52 PM EDT on July 27, 2017 (GMT -0400)
Cherry Capital

Weather History for KTVC - March, 2014

Change the Weather History Date:

Saturday, March 15, 2014

  Actual Average Record
Temperature  
Mean Temperature 21 °F 30 °F  
Max Temperature 33 °F 39 °F 78 °F (1990)
Min Temperature 9 °F 21 °F -6 °F (1916)
Degree Days  
Heating Degree Days 44 35  
Month to date heating degree days 704 559  
Since 1 July heating degree days 6426 5899  
Cooling Degree Days 0 0  
Month to date cooling degree days 0 0  
Year to date cooling degree days 0 0  
Moisture  
Dew Point 15 °F    
Average Humidity 75    
Maximum Humidity 92    
Minimum Humidity 57    
Precipitation  
Precipitation T in 0.05 in 1.57 in (1959)
Month to date precipitation 0.12 0.85  
Year to date precipitation 1.54 5.17  
Snow  
Snow 0.00 in - - ()
Snow Depth 9.00 in    
Sea Level Pressure  
Sea Level Pressure 30.01 in    
Wind  
Wind Speed 14 mph (NNW)    
Max Wind Speed 23 mph    
Max Gust Speed 32 mph    
Visibility 9 miles    
Events Snow    
T = Trace of Precipitation, MM = Missing Value Source: NWS Daily Summary

Daily Weather History Graph

Daily Weather History Graph

Search for Another Location

Airport or City:

Trip Planner

Search our weather history database for the weather conditions in past years. The results will help you decide how hot, cold, wet, or windy it might be!

Date:

Astronomy

Mar. 15, 2014 Rise Set
Actual Time 7:54 AM EDT 7:48 PM EDT
Civil Twilight 7:25 AM EDT 8:17 PM EDT
Nautical Twilight 6:51 AM EDT 8:51 PM EDT
Astronomical Twilight 6:17 AM EDT 9:26 PM EDT
Moon 7:06 PM EDT (3/15) 7:07 AM EDT (3/15)
Length of Visible Light 12h 51m
Length of Day
11h 53m
Waxing Gibbous, 99% of the Moon is Illuminated
Mar 15
Waxing Gibbous
Mar 16
Full
Mar 23
Last Quarter
Mar 30
New
Apr 7
First Quarter

Hourly Weather History & Observations

Time (EDT) Temp. Windchill Dew Point Humidity Pressure Visibility Wind Dir Wind Speed Gust Speed Precip Events Conditions
12:48 AM 35.6 °F 27.5 °F 32.0 °F 87% 29.65 in 10.0 mi NNW 11.5 mph - 0.01 in   Overcast
12:50 AM 35.6 °F 28.0 °F 32.0 °F 87% 29.65 in 9.0 mi North 10.4 mph - 0.01 in   Overcast
12:53 AM 34.0 °F 26.0 °F 30.9 °F 89% 29.67 in 7.0 mi North 10.4 mph - 0.01 in Snow Light Snow
1:16 AM 33.1 °F 25.5 °F 30.0 °F 89% 29.67 in 1.8 mi NNW 9.2 mph - 0.00 in Snow Light Snow
1:41 AM 32.0 °F 23.0 °F 28.9 °F 88% 29.69 in 1.5 mi NNW 11.5 mph - 0.00 in Snow Light Snow
1:53 AM 30.9 °F 21.2 °F 28.9 °F 92% 29.71 in 2.0 mi NNW 12.7 mph - 0.00 in Snow Light Snow
2:01 AM 30.9 °F 20.2 °F 28.0 °F 89% 29.70 in 3.0 mi NNW 15.0 mph - 0.00 in Snow Light Snow
2:53 AM 30.0 °F 19.1 °F 25.0 °F 82% 29.76 in 10.0 mi NW 15.0 mph - 0.00 in   Overcast
3:13 AM 28.9 °F 16.1 °F 21.9 °F 75% 29.76 in 10.0 mi NNW 19.6 mph 26.5 mph N/A   Overcast
3:53 AM 28.0 °F 16.5 °F 21.0 °F 75% 29.80 in 10.0 mi NW 15.0 mph 23.0 mph N/A   Overcast
4:48 AM 26.6 °F 14.3 °F 17.6 °F 69% 29.81 in 10.0 mi NNW 16.1 mph - N/A   Overcast
4:53 AM 27.0 °F 14.3 °F 18.0 °F 69% 29.83 in 10.0 mi NNW 17.3 mph 24.2 mph N/A   Overcast
5:05 AM 26.1 °F 13.1 °F 18.0 °F 71% 29.82 in 10.0 mi NW 17.3 mph 23.0 mph N/A   Overcast
5:53 AM 25.0 °F 13.1 °F 17.1 °F 72% 29.88 in 10.0 mi NW 13.8 mph - N/A   Overcast
6:44 AM 24.1 °F 11.5 °F 16.0 °F 71% 29.90 in 10.0 mi NW 15.0 mph 26.5 mph N/A   Overcast
6:53 AM 23.0 °F 10.1 °F 15.1 °F 72% 29.93 in 10.0 mi NW 15.0 mph - N/A   Overcast
7:53 AM 21.0 °F 8.1 °F 12.0 °F 68% 29.97 in 10.0 mi NNW 13.8 mph - N/A   Scattered Clouds
8:53 AM 19.9 °F 8.6 °F 12.9 °F 74% 30.01 in 10.0 mi North 10.4 mph 18.4 mph N/A   Scattered Clouds
9:00 AM 19.9 °F 7.9 °F 12.0 °F 71% 29.98 in 10.0 mi NNW 11.5 mph 20.7 mph N/A   Mostly Cloudy
9:53 AM 19.9 °F 7.9 °F 12.9 °F 74% 30.05 in 8.0 mi NW 11.5 mph 18.4 mph 0.00 in Snow Light Snow
10:48 AM 21.2 °F 8.9 °F 12.2 °F 68% 30.06 in 10.0 mi NNW 12.7 mph 20.7 mph 0.00 in   Scattered Clouds
10:53 AM 21.0 °F 9.3 °F 12.0 °F 68% 30.09 in 10.0 mi NNW 11.5 mph - 0.00 in   Scattered Clouds
11:39 AM 21.0 °F 7.1 °F 10.9 °F 65% 30.08 in 10.0 mi NNW 16.1 mph - N/A   Overcast
11:53 AM 21.0 °F 6.6 °F 10.9 °F 65% 30.11 in 10.0 mi NW 17.3 mph 24.2 mph 0.00 in   Overcast
12:53 PM 21.0 °F 8.1 °F 10.0 °F 63% 30.14 in 10.0 mi NNW 13.8 mph 23.0 mph 0.00 in   Overcast
1:53 PM 21.0 °F 8.6 °F 10.0 °F 63% 30.18 in 10.0 mi NW 12.7 mph - N/A   Overcast
2:00 PM 21.0 °F 7.1 °F 9.0 °F 60% 30.15 in 10.0 mi NW 16.1 mph - N/A   Overcast
2:53 PM 21.0 °F 8.6 °F 9.0 °F 60% 30.19 in 10.0 mi NNW 12.7 mph 21.9 mph N/A   Overcast
3:53 PM 21.0 °F 7.1 °F 9.0 °F 60% 30.21 in 10.0 mi NNW 16.1 mph 23.0 mph N/A   Mostly Cloudy
4:53 PM 19.9 °F 6.2 °F 8.1 °F 60% 30.24 in 10.0 mi NW 15.0 mph - N/A   Mostly Cloudy
5:53 PM 19.0 °F 6.8 °F 8.1 °F 62% 30.26 in 10.0 mi North 11.5 mph - N/A   Mostly Cloudy
6:53 PM 18.0 °F 3.6 °F 7.0 °F 62% 30.31 in 10.0 mi North 15.0 mph 19.6 mph N/A   Mostly Cloudy
7:53 PM 16.0 °F 2.9 °F 5.0 °F 62% 30.33 in 10.0 mi North 11.5 mph - N/A   Mostly Cloudy
8:12 PM 15.1 °F 1.8 °F 3.0 °F 59% 30.31 in 10.0 mi North 11.5 mph - N/A   Scattered Clouds
8:53 PM 14.0 °F -0.8 °F 3.0 °F 62% 30.36 in 10.0 mi North 13.8 mph - N/A   Partly Cloudy
9:53 PM 12.9 °F -0.9 °F 1.0 °F 59% 30.40 in 10.0 mi North 11.5 mph - N/A   Clear
10:53 PM 10.9 °F -4.7 °F -0.0 °F 61% 30.42 in 10.0 mi North 13.8 mph - N/A   Clear
11:53 PM 10.0 °F -5.2 °F -0.9 °F 61% 30.44 in 10.0 mi North 12.7 mph - N/A   Clear